[[{"header":{"parameterUnit":"m.s-1","parameterCategory":1,"la1":30.2991,"la2":30.254,"lo1":-89.0895,"lo2":-89.0444,"dy":0.0017,"dx":0.0017,"nx":28,"ny":28,"refTime":"2025-05-30T09:00:00:Z","depth":0,"parameterNumber":2,"parameterNumberName":"U-component_of_WINDS"},"data":[0,0,0,0,0,0,0,0,0,0,0,0,0,0,0,0,0,0,0,0,0,0,0,0,0,0,0,0,0,0,0,0,0,0,0,0,0,0,0,0,0,0,0,0,0,0,0,0,0,0,0,0,0,0,0,0,0,0,2.9156,2.9153,0,2.8851,2.8847,2.8844,2.8525,2.852,2.8516,2.8512,2.8221,2.8217,2.8214,0,0,0,0,0,0,0,0,0,0,0,0,0,2.9482,2.9478,2.9156,2.9152,2.9148,2.8851,2.8847,2.8843,2.8526,2.852,2.8515,2.851,2.8222,2.8218,2.8214,0,0,0,0,0,0,0,0,0,0,0,0,0,2.9276,2.9477,2.9157,2.8954,2.8932,2.8852,2.8847,2.8842,2.8527,2.852,2.8513,2.8507,2.8224,2.8218,2.8213,2.8315,0,0,2.8197,2.8194,0,0,0,0,0,0,0,0,2.9288,2.9265,2.8987,2.8968,2.8943,2.8718,2.8855,2.8666,2.8529,2.8682,2.8512,2.8504,2.8393,2.8374,2.8332,2.8301,2.8289,2.8196,2.8193,2.8191,2.8189,0,0,0,0,0,0,0,2.9303,2.9276,2.9036,2.8984,2.8957,2.8884,2.8847,2.8818,2.858,2.8668,2.8644,2.8611,2.838,2.8338,2.8323,2.8285,2.8196,2.8192,2.8188,2.8186,2.8316,2.8323,0,0,0,0,0,0,2.9345,2.929,2.9045,2.9027,2.9102,2.8884,2.8842,2.8798,2.8579,2.8539,2.8617,2.8597,2.835,2.8329,2.8311,2.8408,2.8191,2.8186,2.8183,2.831,2.8318,2.8325,0,0,0,0,0,0,2.9354,2.9326,2.9058,2.9151,2.9111,2.8885,2.8838,2.8796,2.8752,2.854,2.8498,2.8616,2.8344,2.8319,2.8313,2.8394,2.8183,2.8179,2.8302,2.8312,2.8321,2.8609,0,0,0,0,0,0,2.9364,2.9331,2.9363,2.9154,2.9108,2.906,2.8843,2.8794,2.8741,2.8712,2.8528,2.8491,2.8337,2.8323,2.8308,2.8383,2.8174,2.8293,2.8306,2.8318,2.8591,2.8628,2.8659,0,0,0,0,0,2.9377,2.9463,2.9366,2.9339,2.9142,2.9065,2.9039,2.8853,2.8749,2.8781,2.8645,2.8497,2.839,2.8325,2.8306,2.838,2.8287,2.8303,2.8317,2.8576,2.862,2.8658,0,0,0,0,0,0,2.9695,2.9432,2.9322,2.9341,2.9227,2.9011,2.9045,2.8908,2.8826,2.8803,2.8584,2.8545,2.8564,2.8474,2.8406,2.8465,2.8318,2.833,2.8521,2.8561,2.8595,2.8613,2.817,0,0,0,0,0,2.9767,2.972,2.9495,2.9535,2.9482,2.9275,2.9235,2.9101,2.8977,2.8929,2.8792,2.8683,2.8623,2.8589,2.8524,2.858,2.8533,2.8622,2.8656,2.8685,2.8695,2.8711,2.8746,2.8374,2.8374,2.8374,0,0,2.9916,2.9766,2.9751,2.9595,2.949,2.945,2.9237,2.9206,2.9174,2.8927,2.8906,2.8805,2.8669,2.8692,2.8696,2.8617,2.8789,2.8704,2.8728,2.8722,2.8731,2.8766,2.8797,2.8384,2.8382,2.8381,0,0,3.0163,3.0048,3.0062,2.9961,2.9802,2.9663,2.9669,2.9472,2.9391,2.9368,2.9179,2.9145,2.9049,2.8956,2.8897,2.911,2.8969,2.9097,2.927,2.9289,2.9318,2.9343,2.9411,2.9439,2.911,2.911,2.9111,0,3.0369,3.0294,3.0091,3.0066,3.0002,2.977,2.9785,2.97,2.9533,2.9496,2.9409,2.9278,2.9172,2.9166,2.9217,2.9181,2.9178,2.9112,2.9329,2.9352,2.9372,2.9435,2.9462,2.9126,2.9124,2.9123,2.9121,0,3.0552,3.0504,3.0537,3.0368,3.031,3.0309,3.0108,3.0075,2.9948,2.9821,2.98,2.9663,2.9562,2.9554,2.9434,2.9531,2.9485,2.9369,2.9214,2.9426,2.9481,2.9504,2.9148,2.9143,2.9138,2.9134,0,0,3.0986,3.0703,3.0718,3.0636,3.0445,3.0406,3.0396,3.0288,3.0261,3.0157,3.0139,3.0063,2.995,2.9884,2.9753,2.9771,2.9938,2.9649,2.9643,2.97,3.003,3.0112,3.0144,2.9848,2.9851,2.9855,3.0038,0,3.1193,3.1145,3.0962,3.0973,3.0924,3.0704,3.0694,3.0578,3.046,3.0407,3.028,3.0224,3.0085,3.0041,3.005,2.9916,3.0,2.9902,2.9829,2.9829,2.9859,3.0173,3.0261,3.0441,3.006,3.0063,3.0066,0,3.1426,3.1323,3.1327,3.113,3.1104,3.1096,3.0981,3.0933,3.0799,3.0712,3.0637,3.0487,3.0466,3.0329,3.0295,3.0232,3.0194,3.0125,3.0127,3.0106,2.9954,3.0153,3.0494,3.0518,3.0099,3.0097,3.0094,0,3.173,3.1597,3.1577,3.1517,3.1291,3.129,3.1198,3.1056,3.1002,3.0906,3.0868,3.0777,3.0724,3.0658,3.0488,3.0405,3.0473,3.0323,3.0399,3.0403,3.0416,3.0415,3.0747,3.0408,3.0408,3.0407,3.0407,0,3.1974,3.1983,3.1709,3.1698,3.1701,3.1495,3.1507,3.1395,3.1271,3.1236,3.1048,3.1021,3.0802,3.0753,3.0623,3.0611,3.0593,3.0522,3.0485,3.0532,3.054,3.0497,3.0477,3.0414,3.0412,3.0411,3.041,0,3.2311,3.2129,3.2092,3.188,3.1827,3.1839,3.1659,3.1641,3.1513,3.1471,3.145,3.125,3.118,3.1006,3.0896,3.0808,3.0829,3.0769,3.0871,3.0846,3.0928,3.092,3.1236,3.1264,3.0918,3.0922,3.0925,0,3.2473,3.2472,3.2258,3.2216,3.2128,3.2068,3.2009,3.181,3.1757,3.1603,3.1605,3.1519,3.1437,3.1339,3.1186,3.11,3.103,3.1147,3.1016,3.1061,3.1021,3.1018,3.1015,3.1174,3.1178,3.1182,3.1185,0,3.2778,3.2686,3.2605,3.2492,3.2426,3.233,3.2225,3.2205,3.198,3.1933,3.1854,3.1792,3.1673,3.159,3.1479,3.139,3.125,3.1229,3.124,3.1283,3.1339,3.1301,3.0939,3.1221,3.1217,3.1214,3.1213,3.1211,3.3024,3.3011,3.2855,3.277,3.2669,3.2574,3.2543,3.2409,3.2338,3.2218,3.2109,3.2042,3.1908,3.1742,3.1663,3.161,3.1538,3.1558,3.156,3.1566,3.1583,3.1355,3.1591,3.159,3.1589,3.1588,3.1587,0,3.331,3.3199,3.3123,3.2976,3.2911,3.2782,3.2658,3.2613,3.2552,3.2437,3.2359,3.2269,3.2187,3.2029,3.1933,3.1921,3.1855,3.1902,3.1896,3.1877,3.1657,3.1652,3.1957,3.1957,3.1957,3.1957,3.1957,3.1957,3.345,3.3417,3.3309,3.3226,3.3116,3.304,3.298,3.2893,3.2797,3.2702,3.2629,3.2525,3.2392,3.2285,3.2205,3.216,3.2131,3.2198,3.2133,3.1929,3.1893,3.186,3.1853,3.2195,3.2196,3.2354,3.2356,3.2357]},{"header":{"parameterUnit":"m.s-1","parameterCategory":1,"la1":30.2991,"la2":30.254,"lo1":-89.0895,"lo2":-89.0444,"dy":0.0017,"dx":0.0017,"nx":28,"ny":28,"refTime":"2025-05-30T09:00:00:Z","depth":0,"parameterNumber":3,"parameterNumberName":"V-component_of_WINDS"},"data":[0,0,0,0,0,0,0,0,0,0,0,0,0,0,0,0,0,0,0,0,0,0,0,0,0,0,0,0,0,0,0,0,0,0,0,0,0,0,0,0,0,0,0,0,0,0,0,0,0,0,0,0,0,0,0,0,0,0,2.19,2.1899,0,2.1892,2.1892,2.1892,2.1832,2.183,2.1829,2.1828,2.1803,2.1804,2.1805,0,0,0,0,0,0,0,0,0,0,0,0,0,2.1854,2.1855,2.19,2.1899,2.1899,2.1892,2.1892,2.1892,2.1832,2.183,2.1829,2.1827,2.1803,2.1804,2.1805,0,0,0,0,0,0,0,0,0,0,0,0,0,2.1862,2.1855,2.19,2.1869,2.1866,2.1892,2.1892,2.1892,2.1833,2.183,2.1828,2.1826,2.1803,2.1804,2.1805,2.1854,0,0,2.1808,2.1808,0,0,0,0,0,0,0,0,2.1862,2.1864,2.1874,2.1871,2.1868,2.1861,2.1867,2.1879,2.1833,2.1845,2.1828,2.1825,2.1823,2.1822,2.1825,2.1853,2.1852,2.1808,2.1809,2.1809,2.1809,0,0,0,0,0,0,0,2.1861,2.1864,2.1896,2.1874,2.1871,2.1853,2.1852,2.1869,2.1845,2.1844,2.1839,2.184,2.1821,2.1824,2.1824,2.1851,2.1808,2.1809,2.1809,2.181,2.1929,2.1931,0,0,0,0,0,0,2.1867,2.1864,2.1896,2.1896,2.186,2.1856,2.1855,2.1865,2.1845,2.1841,2.1842,2.1838,2.1824,2.1823,2.1823,2.1884,2.1809,2.181,2.1811,2.1926,2.1929,2.1932,0,0,0,0,0,0,2.1866,2.187,2.1897,2.1879,2.1881,2.1859,2.1871,2.1866,2.1869,2.1844,2.1839,2.185,2.1822,2.1821,2.185,2.1882,2.181,2.1811,2.1923,2.1927,2.1931,2.2004,0,0,0,0,0,0,2.1865,2.187,2.1889,2.188,2.1882,2.1926,2.1873,2.1868,2.1873,2.1867,2.185,2.1845,2.182,2.1849,2.1851,2.1882,2.1812,2.192,2.1925,2.1929,2.1999,2.201,2.202,0,0,0,0,0,2.1864,2.1904,2.1891,2.1895,2.1907,2.1928,2.1928,2.1903,2.1876,2.1895,2.1881,2.1846,2.188,2.1852,2.1854,2.1886,2.1918,2.1924,2.1929,2.1994,2.2008,2.202,0,0,0,0,0,0,2.1908,2.1902,2.1886,2.1926,2.193,2.1918,2.1939,2.1918,2.1923,2.1916,2.1881,2.1877,2.1912,2.1902,2.1872,2.1938,2.1893,2.19,2.1942,2.1955,2.1966,2.1965,2.1813,0,0,0,0,0,2.1925,2.1947,2.1938,2.1974,2.1978,2.196,2.1967,2.195,2.1949,2.1947,2.1934,2.1931,2.1942,2.1948,2.1956,2.2,2.1996,2.2023,2.2034,2.2043,2.2047,2.2076,2.2089,2.1951,2.1951,2.1951,0,0,2.1953,2.1954,2.1967,2.1984,2.1983,2.2006,2.196,2.1981,2.1997,2.1948,2.1977,2.197,2.1963,2.2002,2.2018,2.1994,2.2087,2.205,2.2058,2.2057,2.2083,2.2096,2.2108,2.1955,2.1954,2.1953,0,0,2.202,2.2022,2.2056,2.2061,2.2066,2.2056,2.2066,2.2061,2.2056,2.2087,2.2053,2.207,2.2088,2.2088,2.209,2.2173,2.2142,2.2176,2.2229,2.2257,2.2268,2.2278,2.2309,2.2321,2.2182,2.2182,2.2182,0,2.2053,2.2089,2.2074,2.2104,2.2113,2.2082,2.2116,2.212,2.2124,2.213,2.2107,2.2137,2.2129,2.2171,2.2193,2.2195,2.2204,2.2174,2.2269,2.2278,2.2287,2.2317,2.2328,2.2186,2.2186,2.2185,2.2185,0,2.2134,2.216,2.2187,2.2203,2.2216,2.2247,2.2236,2.2251,2.2236,2.2229,2.2264,2.2258,2.2268,2.2277,2.2257,2.2318,2.2305,2.2276,2.223,2.2305,2.2332,2.2343,2.2192,2.2191,2.2189,2.2188,0,0,2.2214,2.2235,2.2245,2.2256,2.2266,2.2284,2.2317,2.2336,2.235,2.2358,2.2384,2.2408,2.2386,2.2388,2.2371,2.2396,2.2468,2.2365,2.2364,2.2385,2.2538,2.2558,2.2572,2.2451,2.2453,2.2454,2.2539,0,2.228,2.2341,2.2335,2.2392,2.2419,2.2397,2.2426,2.2435,2.2432,2.2452,2.2447,2.2466,2.2433,2.2437,2.2461,2.2454,2.2497,2.2448,2.2472,2.2473,2.2472,2.2586,2.2604,2.2684,2.2549,2.2551,2.2552,0,2.236,2.2384,2.2447,2.2464,2.2474,2.2501,2.2523,2.2543,2.2555,2.2552,2.2564,2.2545,2.2578,2.2538,2.2583,2.255,2.2561,2.2561,2.2563,2.2561,2.2514,2.2586,2.2708,2.272,2.2569,2.2567,2.2566,0,2.2417,2.2462,2.2509,2.2519,2.2538,2.2559,2.2567,2.2578,2.2594,2.2612,2.2622,2.2641,2.265,2.2666,2.2654,2.2625,2.2703,2.2659,2.2699,2.27,2.2711,2.271,2.2836,2.2723,2.2723,2.2722,2.2722,0,2.2488,2.2527,2.2536,2.2563,2.2609,2.2603,2.2647,2.2652,2.2665,2.2693,2.2673,2.2698,2.2683,2.2707,2.2697,2.2739,2.2743,2.274,2.2737,2.2741,2.2741,2.2744,2.2737,2.2726,2.2725,2.2724,2.2724,0,2.2554,2.2561,2.2611,2.2632,2.2639,2.2671,2.2687,2.2714,2.2716,2.2752,2.276,2.276,2.2789,2.2782,2.2809,2.2804,2.2858,2.2847,2.2855,2.2852,2.2893,2.2889,2.3023,2.3041,2.2917,2.2919,2.292,0,2.2597,2.263,2.2659,2.2682,2.2695,2.2727,2.2747,2.2746,2.2766,2.279,2.2814,2.2844,2.2867,2.2915,2.2915,2.2939,2.2928,2.2975,2.293,2.2937,2.2929,2.2927,2.2931,2.298,2.2982,2.2983,2.2984,0,2.2675,2.2682,2.2713,2.2751,2.2778,2.2804,2.2827,2.2845,2.2846,2.287,2.2906,2.2925,2.2962,2.2991,2.3017,2.3021,2.3003,2.3,2.3011,2.3013,2.3017,2.3017,2.2877,2.2995,2.2993,2.2993,2.2992,2.2992,2.2731,2.2762,2.2792,2.2831,2.2853,2.2879,2.2908,2.292,2.2951,2.2986,2.2983,2.3023,2.3042,2.3075,2.3086,2.3115,2.3097,2.3111,2.3115,2.3118,2.3124,2.3017,2.3119,2.3119,2.3119,2.3118,2.3118,0,2.2809,2.2831,2.2868,2.2909,2.2941,2.2933,2.2963,2.2988,2.3026,2.3049,2.3078,2.3121,2.3154,2.3163,2.3194,2.3217,2.3209,2.3225,2.3221,2.3223,2.3137,2.3126,2.3231,2.3231,2.3231,2.323,2.323,2.323,2.2853,2.2908,2.2919,2.2986,2.3006,2.3051,2.307,2.3095,2.3115,2.3167,2.3198,2.3208,2.3226,2.3261,2.3291,2.3293,2.3304,2.3323,2.3321,2.324,2.3228,2.3217,2.3206,2.3326,2.3326,2.3405,2.3405,2.3406]}]]